CW6391 Weather Reports


Display with metric or nautical units.
time (UTC)temp
F
wind
direction
speed
MPH
gust
MPH
rain 1hr
in
rain 24hr
in
rain mn
in
humidity
%
barometer
mb
20260502170203 77 161 1.0 7.0 0.00 0.00 0.00 19 1016.7
20260502164203 78 153 2.0 7.0 0.00 0.00 0.00 18 1016.7
20260502163657 77 161 5.0 7.0 0.00 0.00 0.00 18 1016.7
20260502163203 77 177 3.0 8.0 0.00 0.00 0.00 18 1016.7
20260502162657 78 169 4.0 8.0 0.00 0.00 0.00 17 1017.1
20260502162157 78 185 4.0 10.0 0.00 0.00 0.00 17 1017.1
20260502161657 78 162 2.0 12.0 0.00 0.00 0.00 18 1017.1
20260502161200 78 171 5.0 9.0 0.00 0.00 0.00 17 1017.1
20260502160700 78 188 2.0 8.0 0.00 0.00 0.00 17 1017.1
20260502160157 78 195 5.0 9.0 0.00 0.00 0.00 16 1017.4
20260502151657 80 176 4.0 9.0 0.00 0.00 0.00 17 1017.7
20260502151200 79 184 2.0 12.0 0.00 0.00 0.00 17 1017.7
20260502150703 79 197 7.0 12.0 0.00 0.00 0.00 17 1017.7
20260502150200 80 161 3.0 11.0 0.00 0.00 0.00 17 1017.7
20260502130657 81 122 2.0 7.0 0.00 0.00 0.00 18 1019.5
20260502130157 80 176 3.0 8.0 0.00 0.00 0.00 18 1019.5
20260502123658 80 168 2.0 7.0 0.00 0.00 0.00 19 1019.8
20260502123157 78 196 5.0 7.0 0.00 0.00 0.00 19 1019.8
20260502122700 80 167 3.0 8.0 0.00 0.00 0.00 19 1019.8
20260502122200 79 94 2.0 9.0 0.00 0.00 0.00 19 1019.8
20260502121657 80 155 1.0 7.0 0.00 0.00 0.00 20 1020.2
20260502121200 80 242 1.0 5.0 0.00 0.00 0.00 20 1020.2
20260502120657 80 200 2.0 6.0 0.00 0.00 0.00 20 1020.2
20260502120158 80 146 3.0 7.0 0.00 0.00 0.00 20 1020.2
20260502115700 77 177 3.0 12.0 0.00 0.00 0.00 21 1020.5
20260502115157 79 190 1.0 9.0 0.00 0.00 0.00 20 1020.5
20260502114703 80 128 2.0 7.0 0.00 0.00 0.00 20 1020.5
20260502114157 78 134 3.0 6.0 0.00 0.00 0.00 21 1020.5
20260502113657 77 164 2.0 7.0 0.00 0.00 0.00 21 1020.5
20260502113200 77 143 0.0 7.0 0.00 0.00 0.00 22 1020.9
20260502112657 76 157 2.0 12.0 0.00 0.00 0.00 22 1020.9
20260502112200 76 250 2.0 8.0 0.00 0.00 0.00 22 1020.9
20260502111700 76 196 5.0 8.0 0.00 0.00 0.00 21 1021.3
20260502111201 77 163 3.0 8.0 0.00 0.00 0.00 23 1021.3
20260502110700 75 187 2.0 10.0 0.00 0.00 0.00 23 1021.3
20260502110203 74 198 5.0 11.0 0.00 0.00 0.00 23 1021.3
20260502105657 76 185 4.0 9.0 0.00 0.00 0.00 22 1021.3
20260502105203 74 193 1.0 12.0 0.00 0.00 0.00 24 1021.3
20260502104657 74 155 4.0 10.0 0.00 0.00 0.00 23 1021.3
20260502104200 76 155 2.0 6.0 0.00 0.00 0.00 22 1021.3
20260502103657 76 215 1.0 11.0 0.00 0.00 0.00 23 1021.3
20260502103157 74 198 6.0 11.0 0.00 0.00 0.00 23 1021.6
20260502102703 73 188 3.0 10.0 0.00 0.00 0.00 24 1021.6
20260502102206 73 178 7.0 11.0 0.00 0.00 0.00 24 1021.6
20260502101700 74 142 2.0 9.0 0.00 0.00 0.00 24 1021.9
20260502101158 73 186 4.0 9.0 0.00 0.00 0.00 26 1021.9
20260502100657 73 186 4.0 10.0 0.00 0.00 0.00 26 1021.9
20260502100203 73 179 6.0 11.0 0.00 0.00 0.00 25 1021.9
20260502091157 70 163 2.0 12.0 0.00 0.00 0.00 27 1022.3
20260502090657 69 168 8.0 12.0 0.00 0.00 0.00 27 1022.6
20260502090157 70 192 6.0 10.0 0.00 0.00 0.00 27 1022.6
20260502071203 63 75 1.0 2.0 0.00 0.00 0.00 37 1023.4
20260502070700 64 116 0.0 2.0 0.00 0.00 0.00 37 1023.4
20260502070158 63 165 0.0 3.0 0.00 0.00 0.00 38 1023.4
20260502065703 64 130 0.0 3.0 0.00 0.00 0.00 38 1023.4
20260502065157 62 97 0.0 2.0 0.00 0.00 0.00 40 1023.4
20260502064703 62 139 0.0 2.0 0.00 0.00 0.00 40 1023.4
20260502064157 61 75 1.0 2.0 0.00 0.00 0.00 41 1023.4
20260502063700 59 84 0.0 2.0 0.00 0.00 0.00 43 1023.4
20260502063157 60 124 1.0 2.0 0.00 0.00 0.00 43 1023.4
20260502062657 57 158 0.0 1.0 0.00 0.00 0.00 46 1023.4
20260502062157 57 335 0.0 2.0 0.00 0.00 0.00 46 1023.4
20260502061700 56 4 0.0 2.0 0.00 0.00 0.00 48 1023.4
20260502061158 57 86 0.0 2.0 0.00 0.00 0.00 47 1023.4
20260502060704 57 115 0.0 1.0 0.00 0.00 0.00 48 1023.4
20260502060157 55 95 0.0 1.0 0.00 0.00 0.00 50 1023.4
20260502055700 54 78 0.0 3.0 0.00 0.00 0.00 52 1023.7
20260502055157 54 132 0.0 2.0 0.00 0.00 0.00 53 1023.7
20260502054657 53 86 1.0 2.0 0.00 0.00 0.00 55 1023.7
20260502054200 51 98 0.0 2.0 0.00 0.00 0.00 57 1023.7
20260502053706 51 90 1.0 2.0 0.00 0.00 0.00 58 1023.7
20260502053158 50 329 0.0 2.0 0.00 0.00 0.00 59 1023.7
20260502052700 50 347 0.0 2.0 0.00 0.00 0.00 59 1023.7
20260502052157 50 106 0.0 2.0 0.00 0.00 0.00 61 1023.7
20260502051700 49 66 1.0 2.0 0.00 0.00 0.00 63 1023.7
20260502051203 47 119 0.0 2.0 0.00 0.00 0.00 66 1023.7
20260502050657 46 319 0.0 3.0 0.00 0.00 0.00 68 1023.7
20260502050203 45 112 2.0 3.0 0.00 0.00 0.00 70 1023.7
20260502045700 44 87 1.0 4.0 0.00 0.00 0.00 73 1023.7
20260502045157 44 79 1.0 3.0 0.00 0.00 0.00 74 1023.4
20260502044700 43 342 0.0 2.0 0.00 0.00 0.00 76 1023.4
20260502044157 43 353 0.0 1.0 0.00 0.00 0.00 76 1023.4
20260502043657 43 199 0.0 1.0 0.00 0.00 0.00 76 1023.4
20260502043200 43 220 0.0 2.0 0.00 0.00 0.00 76 1023.7
20260502042657 43 239 0.0 2.0 0.00 0.00 0.00 76 1023.7
20260502042158 43 186 0.0 1.0 0.00 0.00 0.00 76 1023.7
20260502041700 43 206 0.0 1.0 0.00 0.00 0.00 76 1023.7
20260502041157 43 251 0.0 2.0 0.00 0.00 0.00 76 1023.7
20260502040657 43 241 1.0 2.0 0.00 0.00 0.00 76 1023.7
20260502040200 43 178 0.0 1.0 0.00 0.00 0.00 76 1023.4
20260502035700 43 231 0.0 2.0 0.00 0.00 0.00 75 1023.7
20260502035200 43 234 0.0 3.0 0.00 0.00 0.00 75 1023.4
20260502034703 44 229 0.0 2.0 0.00 0.00 0.00 75 1023.4
20260502034157 44 257 1.0 2.0 0.00 0.00 0.00 76 1023.4
20260502033700 44 168 0.0 1.0 0.00 0.00 0.00 76 1023.4
20260502033203 44 183 0.0 1.0 0.00 0.00 0.00 76 1023.4
20260502032700 44 208 1.0 2.0 0.00 0.00 0.00 76 1023.7
20260502032200 43 179 1.0 2.0 0.00 0.00 0.00 77 1023.7
20260502031657 43 220 0.0 1.0 0.00 0.00 0.00 77 1023.7
20260502031157 43 288 0.0 1.0 0.00 0.00 0.00 76 1023.7
20260502030700 43 286 1.0 2.0 0.00 0.00 0.00 76 1023.7
20260502030200 43 304 0.0 2.0 0.00 0.00 0.00 76 1023.7
20260502025706 44 290 0.0 2.0 0.00 0.00 0.00 76 1023.7
20260502025158 44 294 0.0 1.0 0.00 0.00 0.00 75 1023.7
20260502024657 44 280 0.0 1.0 0.00 0.00 0.00 75 1023.7
20260502024157 44 229 0.0 1.0 0.00 0.00 0.00 75 1023.7
20260502023706 44 225 0.0 1.0 0.00 0.00 0.00 75 1023.7
20260502023157 44 318 0.0 1.0 0.00 0.00 0.00 75 1023.7
20260502022657 44 280 0.0 2.0 0.00 0.00 0.00 75 1023.7
20260502022200 44 281 1.0 1.0 0.00 0.00 0.00 75 1023.7
20260502021700 44 283 0.0 2.0 0.00 0.00 0.00 75 1023.7
20260502021157 44 321 1.0 2.0 0.00 0.00 0.00 75 1023.7
20260502020703 44 220 0.0 2.0 0.00 0.00 0.00 74 1023.7
20260502020158 44 295 1.0 2.0 0.00 0.00 0.00 74 1023.7
20260502015701 44 301 0.0 2.0 0.00 0.00 0.00 74 1023.7
20260502015200 45 284 1.0 2.0 0.00 0.00 0.00 73 1023.7
20260502014700 45 291 1.0 2.0 0.00 0.00 0.00 73 1023.7
20260502014200 45 316 1.0 3.0 0.00 0.00 0.00 74 1023.7
20260502013657 45 340 0.0 2.0 0.00 0.00 0.00 73 1023.7
20260502013157 45 251 0.0 2.0 0.00 0.00 0.00 73 1024.0
20260502012703 45 212 1.0 2.0 0.00 0.00 0.00 73 1024.0
20260502012203 45 236 1.0 1.0 0.00 0.00 0.00 73 1024.0
20260502011657 45 326 1.0 2.0 0.00 0.00 0.00 73 1024.0
20260502011206 45 231 0.0 2.0 0.00 0.00 0.00 73 1024.0
20260502010657 45 329 0.0 2.0 0.00 0.00 0.00 72 1024.0
20260502010157 46 298 0.0 2.0 0.00 0.00 0.00 72 1024.0
20260502005657 46 319 0.0 3.0 0.00 0.00 0.00 71 1024.0
20260502005157 46 306 1.0 3.0 0.00 0.00 0.00 70 1024.0
20260502004703 46 306 1.0 2.0 0.00 0.00 0.00 70 1024.0
20260502004157 47 276 1.0 2.0 0.00 0.00 0.00 69 1024.0
20260502003657 47 254 0.0 2.0 0.00 0.00 0.00 67 1024.0
20260502003157 47 289 0.0 2.0 0.00 0.00 0.00 66 1024.0
20260502002657 48 102 0.0 2.0 0.00 0.00 0.00 66 1024.0
20260502002200 48 43 0.0 2.0 0.00 0.00 0.00 67 1024.0
20260502001657 48 172 1.0 2.0 0.00 0.00 0.00 67 1024.0
20260502001200 48 324 0.0 1.0 0.00 0.00 0.00 67 1024.0
20260502000657 48 341 0.0 1.0 0.00 0.00 0.00 66 1024.4
20260502000157 48 127 0.0 1.0 0.00 0.00 0.00 65 1024.4
20260501235657 48 141 0.0 2.0 0.00 0.00 0.00 64 1024.4
20260501235157 49 141 0.0 2.0 0.00 0.00 0.00 64 1024.4
20260501234700 49 164 0.0 2.0 0.00 0.00 0.00 63 1024.4
20260501234158 49 168 0.0 3.0 0.00 0.00 0.00 63 1024.4
20260501233703 49 108 1.0 3.0 0.00 0.00 0.00 63 1024.4
20260501233203 49 71 1.0 3.0 0.00 0.00 0.00 62 1024.4
20260501232703 49 87 2.0 3.0 0.00 0.00 0.00 62 1024.4
20260501232200 49 115 1.0 3.0 0.00 0.00 0.00 63 1024.4
20260501231700 50 129 1.0 4.0 0.00 0.00 0.00 63 1024.4
20260501231157 50 76 2.0 3.0 0.00 0.00 0.00 63 1024.4
20260501230657 50 89 0.0 2.0 0.00 0.00 0.00 63 1024.4
20260501230204 50 122 0.0 2.0 0.00 0.00 0.00 62 1024.7
20260501225657 50 177 0.0 2.0 0.00 0.00 0.00 61 1024.7
20260501225200 51 106 0.0 2.0 0.00 0.00 0.00 61 1024.7
20260501224700 51 120 0.0 1.0 0.00 0.00 0.00 61 1024.7
20260501224157 51 172 0.0 2.0 0.00 0.00 0.00 61 1024.7
20260501223657 51 258 0.0 2.0 0.00 0.00 0.00 60 1024.7
20260501223201 51 179 0.0 1.0 0.00 0.00 0.00 59 1024.7
20260501222657 52 227 0.0 1.0 0.00 0.00 0.00 58 1024.7
20260501222203 52 187 1.0 2.0 0.00 0.00 0.00 58 1024.7
20260501221657 52 163 0.0 1.0 0.00 0.00 0.00 57 1024.7
20260501221203 52 122 0.0 2.0 0.00 0.00 0.00 57 1024.7
20260501220657 52 96 1.0 2.0 0.00 0.00 0.00 57 1024.4
20260501220158 52 86 1.0 2.0 0.00 0.00 0.00 57 1024.4
20260501215657 53 89 1.0 2.0 0.00 0.00 0.00 56 1024.4
20260501215206 53 90 1.0 2.0 0.00 0.00 0.00 56 1024.4
20260501214657 53 151 0.0 2.0 0.00 0.00 0.00 56 1024.4
20260501214200 53 109 0.0 3.0 0.00 0.00 0.00 55 1024.4
20260501213657 53 83 2.0 3.0 0.00 0.00 0.00 55 1024.4
20260501213157 54 82 2.0 3.0 0.00 0.00 0.00 54 1024.7
20260501212658 54 101 1.0 3.0 0.00 0.00 0.00 53 1024.7
20260501212157 54 135 0.0 2.0 0.00 0.00 0.00 53 1024.7
20260501211657 55 104 1.0 4.0 0.00 0.00 0.00 52 1024.7
20260501211200 55 66 2.0 3.0 0.00 0.00 0.00 51 1024.7
20260501210700 55 140 0.0 2.0 0.00 0.00 0.00 52 1024.7
20260501210200 55 127 0.0 2.0 0.00 0.00 0.00 52 1024.7
20260501205701 56 140 0.0 2.0 0.00 0.00 0.00 51 1024.7
20260501205200 56 94 1.0 3.0 0.00 0.00 0.00 50 1024.7
20260501204657 56 82 2.0 3.0 0.00 0.00 0.00 49 1024.7
20260501204157 57 74 1.0 2.0 0.00 0.00 0.00 48 1024.7
20260501203657 57 182 0.0 2.0 0.00 0.00 0.00 48 1024.7
20260501203200 57 200 1.0 3.0 0.00 0.00 0.00 47 1024.7
20260501202703 58 85 1.0 3.0 0.00 0.00 0.00 47 1024.7
20260501202157 58 88 1.0 3.0 0.00 0.00 0.00 46 1024.7
20260501201657 58 88 1.0 3.0 0.00 0.00 0.00 46 1024.7
20260501201200 59 220 0.0 3.0 0.00 0.00 0.00 45 1024.7
20260501200657 59 81 1.0 3.0 0.00 0.00 0.00 44 1024.7
20260501200203 60 73 1.0 3.0 0.00 0.00 0.00 44 1024.7
20260501195703 60 130 1.0 2.0 0.00 0.00 0.00 43 1024.7
20260501195207 61 95 1.0 2.0 0.00 0.00 0.00 42 1024.7
20260501194657 61 132 0.0 2.0 0.00 0.00 0.00 40 1024.7
20260501194157 62 151 1.0 2.0 0.00 0.00 0.00 39 1024.7
20260501193657 62 146 1.0 2.0 0.00 0.00 0.00 38 1024.7
20260501193200 63 129 1.0 2.0 0.00 0.00 0.00 38 1024.4
20260501192658 63 109 0.0 2.0 0.00 0.00 0.00 37 1024.4
20260501192200 64 108 0.0 2.0 0.00 0.00 0.00 36 1024.4
20260501191657 64 141 1.0 2.0 0.00 0.00 0.00 35 1024.4
20260501191201 65 139 1.0 3.0 0.00 0.00 0.00 34 1024.4
20260501190657 65 122 1.0 4.0 0.00 0.00 0.00 33 1024.4
20260501190200 65 124 2.0 4.0 0.00 0.00 0.00 32 1024.4
20260501185657 66 141 1.0 5.0 0.00 0.00 0.00 32 1024.4
20260501185157 66 138 2.0 4.0 0.00 0.00 0.00 31 1024.4
20260501184657 66 152 1.0 3.0 0.00 0.00 0.00 31 1024.4
20260501184157 67 147 1.0 4.0 0.00 0.00 0.00 31 1024.4
20260501183657 67 145 2.0 5.0 0.00 0.00 0.00 30 1024.4
20260501183200 67 176 2.0 6.0 0.00 0.00 0.00 30 1024.4
20260501182657 67 183 1.0 5.0 0.00 0.00 0.00 29 1024.4
20260501182157 68 149 2.0 4.0 0.00 0.00 0.00 29 1024.4
20260501181657 68 145 2.0 4.0 0.00 0.00 0.00 29 1024.4
20260501181200 68 164 2.0 5.0 0.00 0.00 0.00 29 1024.0
20260501180657 68 153 2.0 5.0 0.00 0.00 0.00 28 1024.0
20260501180206 69 142 2.0 5.0 0.00 0.00 0.00 28 1024.0